Temperature
20 18 19 19 19 20 20 20 19 19 19 19 18 18 18 17 17 17 17 17 17 17 18 18 18 18 17 17 17 17 17 17 16 16 16 16 15 15 15 15 15 14 14 14
19 19 20 20 20 20 20 19 19 19 19 19 18 18 18 17 17 17 17 17 17 17 17 17 17 18 18 18 17 17 17 16 16 16 15 15 15 15 15 14 14 14 14 14
20 20 21 21 21 21 20 20 20 19 19 18 18 18 18 17 17 17 17 17 17 17 17 17 17 17 17 17 17 16 16 16 15 15 15 15 14 14 14 14 14 14 14 14
20 20 21 22 21 21 20 21 20 19 18 17 18 17 18 17 16 16 17 17 17 17 17 17 17 17 17 17 16 16 16 16 15 15 14 14 14 14 14 14 14 13 13 13
21 21 22 22 22 21 21 20 19 19 18 17 17 17 17 16 17 16 16 17 17 17 17 16 16 17 16 16 16 16 15 15 15 14 14 14 14 14 13 13 13 13 13 13
20 21 21 22 22 21 20 19 18 16 16 17 17 17 16 16 17 16 16 17 17 17 16 16 16 16 15 15 15 15 15 15 14 14 14 14 13 13 13 13 13 13 12 12
20 20 21 22 21 20 19 18 17 17 16 16 17 16 16 16 16 16 16 16 17 16 16 16 15 15 15 15 15 15 14 14 14 14 13 13 13 13 13 12 12 12 12 12
19 19 21 21 21 20 19 18 17 17 16 16 16 16 16 16 16 16 16 16 16 16 16 15 15 15 14 14 14 14 14 14 13 13 13 13 12 12 12 12 12 12 12 11
18 19 20 21 21 20 19 17 17 15 16 15 15 16 16 16 16 15 15 15 15 15 15 15 15 14 14 14 14 14 14 13 13 13 13 12 12 12 12 12 12 12 11 11
19 19 19 20 20 19 18 16 14 15 16 16 16 16 16 16 15 15 14 15 15 15 15 15 14 14 14 14 14 14 13 13 13 12 12 12 12 12 11 11 11 11 11 11
18 17 18 19 19 19 18 17 15 13 14 15 15 16 16 15 15 14 14 15 15 15 15 14 14 14 14 13 13 13 13 13 13 12 12 12 12 11 11 11 11 11 11 11
16 15 16 17 18 18 18 17 15 15 15 14 14 15 16 14 14 14 14 14 15 14 14 14 14 13 13 13 13 13 13 13 12 12 12 11 11 11 11 11 11 10 10 10
16 15 15 16 17 17 17 17 15 14 13 13 14 15 15 14 14 14 14 14 14 14 14 14 13 13 13 13 13 12 12 12 12 12 11 11 11 11 11 10 10 10 10 10
16 14 15 16 16 16 17 17 16 14 13 14 14 15 15 14 13 13 14 14 14 14 13 13 13 13 13 12 12 12 12 12 12 11 11 11 11 11 10 10 10 10 10 10
15 14 15 15 16 16 17 17 16 15 15 15 15 15 15 14 13 14 14 14 13 13 13 13 13 13 12 12 12 12 12 11 11 11 11 11 10 10 10 10 10 10 10 10
13 14 15 15 16 16 16 16 16 16 16 15 15 15 14 14 14 14 13 13 13 13 13 13 13 13 12 12 12 12 11 11 11 11 10 10 10 10 10 10 10 10 10 10
12 13 14 14 15 16 15 16 17 16 16 15 15 15 13 13 13 13 13 13 13 13 13 13 13 13 12 12 12 11 11 11 11 11 10 10 10 10 10 10 10 10 10 10
12 12 11 12 14 15 15 16 16 16 15 15 14 14 13 13 13 14 14 14 14 14 13 13 13 13 12 12 12 11 11 11 11 10 10 10 10 10 10 10 10 10 10 9
11 12 12 12 13 14 15 16 15 15 15 14 14 13 13 13 13 13 14 14 14 13 13 13 13 13 12 12 11 11 11 11 10 10 10 10 10 10 10 10 10 10 10 9
11 11 12 12 14 14 15 16 16 15 14 14 13 12 12 12 12 12 14 14 13 13 13 13 13 12 12 12 11 11 11 11 10 10 10 10 10 10 10 10 10 10 9 9
12 12 12 12 13 13 14 15 16 15 14 14 13 13 12 12 12 13 14 14 13 13 13 13 12 12 12 12 11 11 11 11 10 10 10 10 10 10 10 10 10 9 9 9
12 12 11 11 12 13 14 14 14 13 14 14 14 14 13 13 13 13 13 13 13 13 12 12 12 12 12 11 11 11 11 11 10 10 10 10 10 10 10 10 10 10 10 10
11 11 10 11 12 13 14 14 15 15 14 14 14 14 13 13 13 13 13 13 13 13 12 12 12 12 12 11 11 11 11 11 10 10 10 10 10 10 10 10 10 10 10 10
11 11 10 10 11 13 14 14 14 14 14 14 14 14 13 13 13 13 13 12 12 12 12 12 12 12 11 11 11 11 11 10 10 10 10 10 10 10 10 10 10 10 10 10
10 10 10 10 11 12 14 14 14 14 14 14 14 13 13 13 13 13 12 12 12 12 12 12 11 11 11 11 11 11 10 10 10 10 10 10 10 10 10 10 10 10 10 10
10 10 10 10 12 11 13 13 14 13 13 13 13 13 13 13 13 13 12 12 12 12 12 11 11 11 11 11 11 11 10 10 10 10 10 10 10 10 10 10 10 10 10 10
Wind_Speed
4 5 1 5 5 4 3 2 2 4 2 2 1 2 3 2 3 4 4 5 5 5 3 3 3 3 3 3 3 2 2 1 2 1 1 1 1 0 0 0 1 2 2 2
6 2 6 3 3 3 4 2 1 3 1 2 1 2 2 2 3 4 6 6 6 5 3 3 3 3 3 3 2 2 1 1 1 1 1 1 1 1 1 0 1 0 1 2
3 6 3 1 1 2 2 4 4 3 2 3 2 4 3 2 2 2 3 3 4 6 5 4 4 4 3 3 3 2 1 1 1 1 2 2 2 1 1 1 1 1 0 1
4 5 2 1 2 3 3 4 4 3 2 2 1 2 5 3 3 3 4 3 4 4 5 5 5 4 3 3 2 2 1 2 2 2 3 3 2 1 1 1 0 1 2 1
4 2 1 2 3 3 3 2 3 2 2 1 2 1 6 2 4 6 6 5 4 4 5 5 5 4 3 2 2 2 2 3 2 2 2 2 1 0 1 1 1 1 2 2
5 3 2 3 1 2 3 5 5 5 4 1 2 3 6 4 6 5 4 5 4 4 4 4 3 3 2 2 2 2 3 2 2 3 3 3 2 1 1 1 1 1 2 1
7 6 4 1 2 4 5 5 5 5 4 5 2 2 7 6 5 5 6 4 3 4 4 4 4 4 3 2 2 2 2 2 2 2 2 2 2 2 1 0 0 1 1 2
3 7 5 3 1 2 0 6 5 4 5 5 3 4 6 5 3 2 2 3 3 3 4 4 4 4 3 2 2 2 2 2 2 2 1 1 1 1 0 1 1 1 2 3
1 5 6 4 2 3 3 2 4 5 1 2 5 6 6 2 2 1 1 2 3 3 4 4 4 4 3 2 2 3 2 1 1 1 1 1 1 0 0 1 1 1 2 2
2 4 6 5 4 5 2 6 5 4 2 3 5 5 5 5 5 3 2 3 4 3 3 4 3 3 3 3 2 2 2 1 1 1 1 1 0 1 1 1 1 2 2 2
1 1 6 5 2 2 2 3 4 3 3 3 4 7 4 5 5 5 5 4 4 4 5 4 3 3 3 3 2 2 2 2 1 0 0 1 1 1 1 1 2 2 2 2
2 2 3 6 6 3 2 3 5 2 3 3 3 7 5 4 4 4 4 3 3 3 3 3 3 3 3 2 2 2 1 1 1 0 0 1 1 2 2 2 3 2 2 2
1 2 3 8 7 5 2 0 2 3 3 4 4 7 4 4 2 1 2 3 3 3 3 3 3 3 3 2 2 1 1 1 0 0 0 1 1 2 2 3 3 2 2 2
1 2 5 6 7 5 5 4 2 3 3 4 7 8 7 5 3 2 2 3 3 3 3 3 3 3 3 3 2 2 2 2 1 1 1 1 1 2 2 3 2 2 2 2
3 1 4 7 8 6 6 7 5 5 6 7 8 8 10 7 5 5 4 3 4 3 3 3 4 3 3 3 2 2 2 1 1 1 1 2 2 2 2 2 2 2 2 2
2 1 2 5 6 5 6 7 6 5 5 5 5 8 7 3 2 3 4 5 5 4 4 4 4 4 4 4 3 2 2 1 1 1 2 2 1 1 2 2 2 2 2 2
1 1 1 4 6 5 5 6 4 3 3 4 6 6 2 1 3 4 5 5 5 5 5 5 5 5 5 4 4 4 3 1 1 1 1 1 1 1 2 2 2 2 2 2
4 2 1 2 3 4 7 3 2 3 3 2 3 4 3 3 3 3 3 5 5 5 5 4 4 4 4 3 3 3 2 2 1 1 1 1 1 2 2 2 2 2 2 2
5 5 2 1 2 6 6 4 2 2 4 2 2 3 3 2 3 2 1 3 5 5 4 4 4 4 4 4 3 3 2 1 1 1 1 1 1 1 1 2 2 2 2 2
3 3 3 1 2 4 5 6 4 0 4 4 2 2 2 2 1 4 2 2 2 2 2 3 3 3 3 3 4 4 2 2 1 2 2 2 1 1 1 2 2 1 1 2
3 2 1 3 4 6 5 6 3 2 6 5 2 2 2 2 4 3 1 2 3 3 3 3 4 3 3 4 5 4 2 3 3 2 1 1 1 1 1 1 1 1 2 2
2 1 2 1 3 6 4 3 0 5 5 3 2 2 2 2 1 1 2 2 3 3 3 3 3 2 1 3 5 4 3 3 2 1 0 1 1 1 1 1 2 2 2 2
3 4 4 5 7 6 5 5 6 3 3 4 3 2 2 1 1 1 2 3 3 3 2 2 3 2 1 2 4 4 3 2 1 1 0 1 2 2 1 1 2 2 2 2
4 1 2 5 9 9 9 7 6 3 4 4 3 3 3 3 2 2 3 3 2 2 2 2 3 3 2 2 3 3 2 2 2 1 1 1 1 2 2 1 2 2 3 3
6 2 3 7 9 9 7 5 6 5 3 2 2 2 4 3 2 3 3 3 3 2 2 3 3 3 3 2 2 2 2 2 2 1 1 1 1 2 2 3 2 3 4 4
5 6 5 8 8 6 9 8 6 4 3 2 1 1 2 3 3 3 4 4 3 3 3 3 2 3 3 2 2 2 2 3 3 1 1 1 1 2 2 3 4 5 5 7
Wind_Direction
32 59 284 240 208 198 177 169 254 271 273 101 150 258 273 197 168 183 192 192 188 196 192 153 146 141 127 123 113 106 95 79 105 127 154 154 167 159 125 229 163 149 157 163
32 319 250 234 180 158 153 149 266 303 358 115 120 291 290 192 204 203 204 207 202 193 177 164 158 153 148 145 140 126 127 122 145 168 151 143 139 155 182 257 20 184 190 187
204 250 260 172 91 132 196 188 211 219 1 49 81 334 309 285 252 231 217 220 209 198 199 182 177 187 169 155 163 167 187 163 134 112 106 89 70 57 49 29 357 338 13 141
250 266 267 283 264 170 259 229 184 168 105 295 99 272 277 267 285 259 252 237 227 210 196 188 185 190 184 180 157 136 124 94 92 112 136 143 149 181 232 233 264 345 28 51
284 275 277 268 262 191 221 81 120 134 139 21 11 178 279 292 265 259 250 240 225 204 187 187 188 183 177 157 138 131 108 82 87 110 127 125 104 54 21 44 38 4 4 11
276 289 238 239 331 114 116 69 56 55 70 341 262 191 271 248 235 246 242 233 216 191 175 170 159 153 150 128 120 111 104 83 78 90 99 112 119 106 78 47 32 360 341 334
337 334 333 17 26 23 66 75 23 358 3 255 272 216 250 257 246 229 234 228 202 181 162 156 152 154 143 122 107 100 108 89 86 95 96 103 128 130 135 171 57 337 317 304
355 315 318 346 207 212 133 133 158 216 233 274 316 243 254 262 282 265 214 187 173 170 160 157 157 156 152 134 119 109 108 111 122 131 114 84 86 118 188 221 226 257 270 276
223 281 308 330 335 133 131 142 163 146 194 281 282 282 297 277 319 337 133 164 198 184 168 163 154 158 156 149 159 144 127 111 101 108 109 96 90 69 308 306 278 266 268 277
180 277 303 318 22 24 108 143 94 111 170 271 289 275 254 260 261 264 251 223 217 191 174 171 170 172 165 159 156 122 134 158 179 137 133 119 61 325 303 311 313 300 300 304
68 210 309 347 0 305 21 66 95 108 156 179 263 272 235 241 243 234 241 235 216 195 188 186 181 173 155 136 133 138 156 149 135 93 81 56 10 344 335 319 312 315 317 316
47 123 285 285 284 273 211 179 146 147 244 196 212 267 289 274 253 220 227 226 208 195 180 172 165 154 150 152 159 164 148 135 195 204 91 16 356 347 341 323 316 322 320 319
51 87 349 337 341 356 19 61 137 129 138 183 202 266 319 342 342 302 215 210 190 178 168 158 153 164 177 181 178 172 179 202 216 147 102 356 331 333 321 313 319 326 329 331
75 134 186 232 254 273 287 280 242 158 183 226 233 257 289 293 278 274 252 198 172 172 171 164 169 187 192 191 194 190 209 208 189 170 201 264 292 299 298 306 317 319 321 320
76 239 245 259 268 269 272 278 265 228 213 218 250 250 266 257 236 223 209 178 163 169 172 179 187 192 188 195 204 198 204 216 198 206 247 260 274 298 312 314 320 326 327 315
37 242 294 295 288 287 284 282 266 252 236 234 256 266 270 255 207 201 196 184 189 193 191 195 195 191 193 200 200 194 202 211 185 216 251 262 277 315 315 312 326 340 335 330
278 192 308 284 300 333 294 269 249 235 229 211 237 257 281 285 233 214 207 202 204 204 200 198 198 194 199 200 189 188 195 174 159 231 258 276 300 314 310 313 336 328 324 333
183 163 176 285 344 261 252 282 270 256 282 284 284 291 256 238 245 232 202 203 216 207 203 206 197 193 195 186 175 172 159 150 158 214 268 290 300 307 319 335 329 321 325 325
178 161 157 171 269 281 301 320 300 250 284 340 336 345 355 46 33 332 243 204 211 207 197 198 192 181 177 175 168 153 145 135 152 232 259 263 250 275 310 318 309 315 332 325
72 113 137 173 245 260 277 307 312 82 301 337 3 353 2 60 6 281 264 201 203 195 172 163 154 145 160 170 155 150 154 158 211 241 253 259 251 256 279 283 291 307 308 306
356 11 175 220 242 265 283 319 24 49 286 313 319 289 210 219 238 270 200 143 153 150 145 140 141 153 176 161 149 155 170 208 229 238 248 273 282 277 272 296 301 301 316 328
248 261 243 196 237 262 329 15 43 258 290 292 273 249 231 273 293 196 152 139 136 122 116 131 142 157 161 151 150 164 204 225 213 175 231 296 311 308 311 310 311 315 331 333
223 202 211 214 235 265 295 277 279 263 283 277 248 262 217 237 274 202 181 168 155 147 143 134 147 147 143 161 161 181 220 201 147 126 269 302 319 324 320 299 301 315 322 310
280 231 224 270 275 287 290 291 294 276 273 270 251 235 209 210 225 199 181 180 176 169 163 140 137 153 183 194 176 191 205 164 144 170 288 312 327 327 335 324 295 293 294 293
250 261 265 272 285 304 300 299 304 314 316 305 295 244 205 182 196 198 193 197 197 184 174 157 165 186 204 198 197 197 175 160 169 192 271 316 328 318 327 324 297 278 268 248
226 218 231 258 263 261 278 288 299 303 303 281 239 250 233 197 193 199 200 202 196 190 178 167 181 197 201 193 212 217 181 170 165 181 255 274 298 312 317 321 323 303 272 279
Height
1497 1502 1507 1504 1503 1503 1505 1510 1513 1509 1502 1504 1507 1506 1503 1502 1502 1502 1503 1503 1503 1504 1506 1508 1509 1510 1511 1512 1513 1513 1514 1514 1514 1514 1515 1515 1515 1517 1518 1518 1518 1518 1518 1518
1503 1506 1500 1498 1499 1501 1505 1510 1511 1507 1502 1504 1507 1506 1503 1502 1501 1501 1501 1501 1502 1503 1504 1506 1508 1508 1509 1510 1511 1512 1512 1512 1512 1512 1513 1513 1513 1514 1515 1516 1516 1516 1515 1515
1504 1501 1495 1497 1498 1502 1504 1508 1507 1508 1505 1505 1507 1510 1505 1501 1500 1501 1501 1501 1501 1502 1502 1504 1505 1506 1507 1508 1508 1510 1510 1510 1511 1511 1511 1511 1511 1512 1513 1513 1513 1513 1513 1513
1501 1496 1496 1496 1498 1498 1505 1498 1500 1504 1511 1517 1512 1523 1509 1503 1501 1499 1499 1499 1499 1499 1501 1502 1504 1505 1505 1506 1507 1508 1508 1509 1509 1509 1510 1510 1510 1510 1510 1511 1511 1511 1511 1510
1500 1496 1496 1497 1495 1495 1498 1496 1500 1504 1511 1517 1516 1522 1515 1504 1503 1499 1496 1496 1497 1497 1498 1500 1502 1503 1504 1505 1506 1506 1507 1507 1508 1508 1509 1509 1508 1509 1509 1509 1509 1509 1509 1508
1497 1494 1493 1493 1491 1492 1495 1500 1505 1511 1517 1527 1518 1523 1518 1507 1500 1497 1494 1494 1494 1496 1497 1498 1500 1502 1503 1504 1504 1505 1506 1506 1507 1507 1507 1507 1507 1507 1507 1507 1507 1507 1506 1506
1503 1497 1492 1491 1494 1495 1498 1511 1527 1528 1535 1530 1516 1519 1515 1498 1494 1493 1492 1492 1493 1494 1495 1496 1498 1499 1501 1502 1502 1504 1505 1505 1505 1506 1506 1506 1506 1506 1506 1506 1505 1505 1504 1504
1514 1513 1497 1493 1495 1499 1501 1508 1527 1535 1537 1529 1518 1518 1506 1494 1492 1491 1490 1491 1492 1492 1494 1495 1496 1498 1499 1500 1501 1502 1503 1503 1504 1504 1505 1505 1505 1505 1505 1504 1504 1503 1502 1502
1516 1512 1496 1493 1492 1495 1502 1509 1510 1523 1527 1532 1524 1513 1501 1492 1491 1491 1490 1490 1490 1491 1492 1493 1495 1496 1498 1499 1501 1501 1502 1503 1503 1503 1503 1503 1504 1504 1503 1503 1502 1502 1501 1500
1508 1512 1501 1495 1493 1495 1498 1505 1516 1524 1532 1534 1523 1516 1509 1496 1493 1491 1490 1490 1489 1490 1491 1492 1494 1495 1497 1498 1500 1500 1502 1502 1502 1502 1502 1502 1502 1502 1502 1501 1501 1500 1499 1498
1506 1514 1508 1501 1501 1502 1503 1507 1514 1523 1525 1531 1531 1519 1495 1493 1490 1491 1489 1489 1489 1489 1490 1491 1493 1494 1496 1497 1499 1499 1500 1501 1501 1501 1501 1501 1501 1501 1501 1500 1500 1499 1498 1497
1509 1516 1517 1508 1499 1497 1498 1503 1511 1521 1523 1525 1528 1518 1490 1489 1488 1488 1488 1488 1488 1489 1490 1490 1492 1493 1495 1496 1497 1498 1499 1500 1500 1501 1501 1501 1500 1500 1500 1499 1499 1498 1497 1496
1510 1517 1524 1518 1512 1503 1502 1502 1506 1513 1521 1525 1525 1512 1489 1488 1487 1487 1488 1487 1488 1488 1489 1490 1491 1492 1494 1495 1496 1498 1498 1499 1499 1500 1500 1500 1499 1499 1499 1498 1497 1496 1496 1495
1508 1516 1522 1524 1516 1507 1505 1503 1504 1510 1518 1519 1513 1503 1493 1490 1488 1487 1487 1487 1487 1488 1488 1489 1490 1492 1493 1495 1496 1497 1498 1498 1498 1499 1499 1499 1499 1498 1498 1497 1496 1495 1495 1494
1508 1515 1512 1510 1505 1503 1502 1500 1500 1503 1504 1508 1501 1497 1490 1487 1487 1486 1486 1486 1486 1487 1488 1489 1490 1491 1493 1494 1495 1496 1496 1497 1497 1497 1498 1498 1498 1498 1497 1496 1495 1494 1494 1493
1510 1513 1511 1509 1502 1501 1501 1497 1495 1495 1495 1497 1495 1493 1485 1484 1484 1484 1484 1485 1485 1486 1487 1488 1489 1490 1491 1493 1494 1495 1496 1496 1496 1497 1497 1497 1497 1496 1496 1495 1494 1493 1493 1492
1513 1514 1516 1515 1505 1502 1505 1495 1492 1491 1489 1491 1493 1489 1484 1484 1483 1482 1483 1483 1484 1485 1486 1486 1487 1489 1490 1492 1493 1494 1495 1495 1496 1496 1496 1496 1496 1496 1495 1494 1494 1493 1492 1491
1511 1515 1519 1518 1511 1512 1501 1488 1488 1489 1488 1487 1487 1485 1484 1483 1482 1481 1482 1482 1483 1484 1484 1485 1487 1488 1490 1491 1492 1494 1494 1495 1495 1495 1495 1495 1496 1495 1495 1494 1493 1492 1491 1490
1505 1511 1517 1520 1517 1508 1495 1489 1488 1489 1489 1486 1486 1485 1484 1482 1481 1481 1481 1481 1482 1483 1484 1485 1486 1488 1489 1490 1492 1493 1494 1494 1494 1495 1495 1495 1496 1495 1494 1494 1493 1492 1491 1490
1506 1508 1515 1518 1515 1512 1499 1488 1484 1486 1490 1485 1485 1485 1484 1484 1486 1482 1480 1480 1481 1482 1483 1485 1486 1487 1489 1490 1491 1492 1493 1494 1494 1495 1495 1495 1495 1495 1494 1493 1493 1492 1490 1489
1512 1513 1515 1517 1515 1505 1493 1487 1486 1496 1495 1485 1484 1484 1484 1484 1484 1482 1481 1480 1481 1482 1483 1484 1486 1487 1488 1489 1490 1492 1493 1493 1494 1495 1495 1495 1495 1494 1494 1493 1493 1492 1490 1489
1515 1515 1515 1515 1514 1507 1490 1489 1492 1492 1486 1484 1483 1483 1482 1482 1481 1481 1481 1481 1481 1482 1483 1484 1485 1487 1488 1489 1490 1491 1492 1494 1494 1495 1495 1495 1495 1494 1494 1494 1493 1492 1490 1489
1512 1511 1511 1510 1505 1493 1490 1489 1488 1486 1485 1483 1482 1482 1482 1481 1481 1480 1481 1481 1482 1482 1483 1485 1486 1487 1488 1489 1490 1491 1493 1494 1494 1495 1495 1495 1495 1495 1494 1493 1492 1491 1490 1488
1508 1505 1505 1503 1494 1490 1488 1486 1484 1484 1483 1481 1481 1481 1480 1480 1480 1480 1481 1481 1482 1483 1484 1485 1486 1487 1488 1489 1490 1492 1493 1494 1494 1494 1494 1495 1495 1495 1494 1493 1492 1491 1489 1488
1506 1505 1504 1500 1492 1488 1484 1483 1482 1481 1480 1479 1479 1479 1480 1479 1480 1480 1480 1481 1482 1483 1484 1485 1486 1487 1488 1489 1490 1492 1493 1493 1494 1494 1494 1494 1495 1494 1494 1493 1492 1491 1489 1488
1501 1501 1501 1496 1489 1488 1483 1481 1480 1479 1478 1478 1478 1478 1479 1479 1479 1479 1480 1481 1482 1483 1484 1485 1486 1488 1488 1490 1491 1492 1493 1493 1494 1494 1494 1494 1494 1494 1493 1492 1491 1490 1489 1488